Location: The Rolnick Observatory
(41.1711°N, 73.3275°W)
Time: 22:09:19
(UTC-04:00)

Envisat - Visible Passes

Search period start: 21 April 2019 00:00
Search period end: 01 May 2019 00:00
Orbit: 764 x 766 km, 98.2° (Epoch: 21 April)

Date Brightness Start Highest point End Pass type
(mag) Time Alt. Az. Time Alt. Az. Time Alt. Az.
22 Apr 5.5 20:29:31 10° SW 20:33:26 22° W 20:37:23 10° NW visible
24 Apr 6.0 20:57:08 10° WSW 20:59:14 12° W 21:01:22 10° WNW visible
25 Apr 5.2 20:17:47 10° SSW 20:22:08 28° W 20:26:29 10° NW visible
27 Apr 5.8 20:44:48 10° SW 20:47:53 16° W 20:51:00 10° NW visible
30 Apr 5.6 20:32:50 10° SW 20:36:33 20° W 20:40:18 10° NW visible
